This is the latest recevied weather packets stored in our database for station/object VK5GR-12. If no packets are shown the sender has not sent any weather packets the latest 1 day(s).
| Time | Temp. | Humidity | Pressure | Rain* | Wind** | Luminosity | Snow |
|---|---|---|---|---|---|---|---|
| 1778023326 | 14.44° C | 88% | 1023.5 hPa | 0 mm | 0.45 m/s, 77° | 109 W/m² | - |
| 1778022426 | 14.44° C | 89% | 1023.7 hPa | 0 mm | 0 m/s | 63 W/m² | - |
| 1778021521 | 13.89° C | 90% | 1023.3 hPa | 0 mm | 0 m/s | 83 W/m² | - |
| 1778020617 | 13.89° C | 90% | 1023.2 hPa | 0 mm | 0.45 m/s, 254° | 61 W/m² | - |
| 1778019717 | 13.89° C | 90% | 1023.2 hPa | 0 mm | 0 m/s | 28 W/m² | - |
| 1778018814 | 13.33° C | 90% | 1023 hPa | 0 mm | 0 m/s | 15 W/m² | - |
| 1778017913 | 13.33° C | 89% | 1022.9 hPa | 0 mm | 0 m/s | 10 W/m² | - |
| 1778017011 | 13.33° C | 88% | 1022.9 hPa | 0 mm | 0 m/s | 2 W/m² | - |
| 1778016107 | 13.33° C | 87% | 1022.7 hPa | 0 mm | 0 m/s | 1 W/m² | - |
| 1778015204 | 13.33° C | 86% | 1022.5 hPa | 0 mm | 0 m/s | 0 W/m² | - |
| 1778014302 | 13.33° C | 86% | 1022.7 hPa | 0 mm | 0 m/s | 0 W/m² | - |
| 1778013399 | 13.33° C | 86% | 1022.7 hPa | 0 mm | 0 m/s | 0 W/m² | - |
| 1778012500 | 13.33° C | 87% | 1022.7 hPa | 0 mm | 0 m/s | 0 W/m² | - |
| 1778011598 | 13.33° C | 88% | 1022.6 hPa | 0 mm | 0 m/s | 0 W/m² | - |
| 1778010694 | 13.33° C | 88% | 1022.5 hPa | 0 mm | 0 m/s | 0 W/m² | - |
| 1778009790 | 13.33° C | 88% | 1022.6 hPa | 0 mm | 0 m/s | 0 W/m² | - |
| 1778008889 | 12.78° C | 87% | 1022.6 hPa | 0 mm | 0 m/s | 0 W/m² | - |
| 1778007986 | 12.78° C | 88% | 1022.7 hPa | 0 mm | 0 m/s | 0 W/m² | - |
| 1778007086 | 12.78° C | 89% | 1022.7 hPa | 0 mm | 0 m/s | 0 W/m² | - |
| 1778006182 | 12.78° C | 89% | 1022.6 hPa | 0 mm | 0 m/s | 0 W/m² | - |
| 1778005278 | 12.78° C | 89% | 1022.5 hPa | 0 mm | 0 m/s | 0 W/m² | - |
| 1778004373 | 12.78° C | 90% | 1022.4 hPa | 0 mm | 0 m/s | 0 W/m² | - |
| 1778003469 | 12.78° C | 90% | 1022.7 hPa | 0 mm | 0 m/s | 0 W/m² | - |
| 1778002565 | 12.78° C | 89% | 1022.8 hPa | 0 mm | 0 m/s | 0 W/m² | - |
| 1778001662 | 12.78° C | 89% | 1022.7 hPa | 0 mm | 0 m/s | 0 W/m² | - |
* Rain latest hour (hover to see other rain measurements)
** Current wind speed in m/s (hover to see current wind gust speed)